"Datum/tijd (MEZT)";"astronomisch [cm]";"waterstand [cm]";"verwachte opzet";"verwachting RWS"
2024-04-14 01:00;-11;12;;10
2024-04-14 01:10;-12;12;;9
2024-04-14 01:20;-13;11;;8
2024-04-14 01:30;-14;10;;7
2024-04-14 01:40;-14;10;;8
2024-04-14 01:50;-14;11;;8
2024-04-14 02:00;-14;12;;9
2024-04-14 02:10;-14;13;;10
2024-04-14 02:20;-13;14;;10
2024-04-14 02:30;-13;14;;10
2024-04-14 02:40;-13;15;;10
2024-04-14 02:50;-12;15;;10
2024-04-14 03:00;-12;16;;9
2024-04-14 03:10;-13;15;;9
2024-04-14 03:20;-13;15;;8
2024-04-14 03:30;-14;14;;8
2024-04-14 03:40;-14;13;;8
2024-04-14 03:50;-15;12;;7
2024-04-14 04:00;-16;10;;7
2024-04-14 04:10;-16;9;;7
2024-04-14 04:20;-17;8;;7
2024-04-14 04:30;-17;7;;8
2024-04-14 04:40;-17;7;;8
2024-04-14 04:50;-16;7;;9
2024-04-14 05:00;-14;8;;7
2024-04-14 05:10;-12;9;;8
2024-04-14 05:20;-10;11;;11
2024-04-14 05:30;-7;15;;14
2024-04-14 05:40;-3;18;;18
2024-04-14 05:50;1;23;;23
2024-04-14 06:00;6;29;;30
2024-04-14 06:10;13;36;;37
2024-04-14 06:20;20;43;;46
2024-04-14 06:30;28;52;;55
2024-04-14 06:40;37;64;;66
2024-04-14 06:50;46;75;;78
2024-04-14 07:00;55;86;;88
2024-04-14 07:10;65;97;;98
2024-04-14 07:20;74;106;;107
2024-04-14 07:30;82;112;;115
2024-04-14 07:40;89;119;;122
2024-04-14 07:50;94;123;;127
2024-04-14 08:00;98;125;;131
2024-04-14 08:10;101;127;;132
2024-04-14 08:20;102;126;;133
2024-04-14 08:30;103;125;;132
2024-04-14 08:40;102;126;;130
2024-04-14 08:50;101;123;;127
2024-04-14 09:00;99;122;;123
2024-04-14 09:10;97;121;;120
2024-04-14 09:20;95;119;;117
2024-04-14 09:30;92;116;;115
2024-04-14 09:40;89;113;;113
2024-04-14 09:50;86;110;;111
2024-04-14 10:00;83;106;;108
2024-04-14 10:10;79;103;;105
2024-04-14 10:20;75;98;;100
2024-04-14 10:30;71;94;;94
2024-04-14 10:40;66;89;;88
2024-04-14 10:50;61;85;;83
2024-04-14 11:00;56;80;;77
2024-04-14 11:10;51;75;;72
2024-04-14 11:20;46;69;;66
2024-04-14 11:30;41;66;;61
2024-04-14 11:40;36;60;;55
2024-04-14 11:50;31;54;;50
2024-04-14 12:00;27;49;;46
2024-04-14 12:10;22;46;;42
2024-04-14 12:20;18;42;;38
2024-04-14 12:30;15;39;;34
2024-04-14 12:40;11;34;;30
2024-04-14 12:50;8;31;;27
2024-04-14 13:00;5;27;;24
2024-04-14 13:10;3;25;;21
2024-04-14 13:20;0;22;;19
2024-04-14 13:30;-2;21;;17
2024-04-14 13:40;-4;19;;16
2024-04-14 13:50;-6;18;;15
2024-04-14 14:00;-7;17;;14
2024-04-14 14:10;-9;17;;14
2024-04-14 14:20;-10;17;;14
2024-04-14 14:30;-11;17;;14
2024-04-14 14:40;-12;17;;14
2024-04-14 14:50;-12;17;;14
2024-04-14 15:00;-13;18;;14
2024-04-14 15:10;-13;16;;14
2024-04-14 15:20;-13;17;;14
2024-04-14 15:30;-13;15;;14
2024-04-14 15:40;-13;16;;14
2024-04-14 15:50;-13;15;;14
2024-04-14 16:00;-14;15;;14
2024-04-14 16:10;-14;16;;14
2024-04-14 16:20;-14;15;;14
2024-04-14 16:30;-15;15;;14
2024-04-14 16:40;-15;16;;13
2024-04-14 16:50;-16;15;;13
2024-04-14 17:00;-16;14;;13
2024-04-14 17:10;-16;14;;13
2024-04-14 17:20;-15;15;;12
2024-04-14 17:30;-15;15;;12
2024-04-14 17:40;-13;16;;13
2024-04-14 17:50;-11;17;;13
2024-04-14 18:00;-9;18;;14
2024-04-14 18:10;-6;21;;16
2024-04-14 18:20;-1;23;;18
2024-04-14 18:30;3;26;;20
2024-04-14 18:40;9;30;;24
2024-04-14 18:50;16;35;;29
2024-04-14 19:00;23;40;;35
2024-04-14 19:10;30;47;;43
2024-04-14 19:20;38;55;;53
2024-04-14 19:30;45;63;;63
2024-04-14 19:40;53;71;;74
2024-04-14 19:50;60;80;;82
2024-04-14 20:00;66;87;;88
2024-04-14 20:10;71;93;;94
2024-04-14 20:20;75;98;;99
2024-04-14 20:30;78;99;;103
2024-04-14 20:40;80;101;;105
2024-04-14 20:50;81;101;;105
2024-04-14 21:00;81;101;;105
2024-04-14 21:10;81;99;;104
2024-04-14 21:20;80;97;;102
2024-04-14 21:30;78;96;;99
2024-04-14 21:40;76;93;;97
2024-04-14 21:50;74;90;;93
2024-04-14 22:00;72;87;;90
2024-04-14 22:10;69;84;;87
2024-04-14 22:20;66;80;;83
2024-04-14 22:30;63;76;;79
2024-04-14 22:40;60;72;;75
2024-04-14 22:50;56;67;;70
2024-04-14 23:00;52;63;;65
2024-04-14 23:10;48;58;;59
2024-04-14 23:20;44;54;;53
2024-04-14 23:30;39;49;;47
2024-04-14 23:40;35;44;;41
2024-04-14 23:50;30;40;;36
2024-04-15 00:00;25;35;;32
2024-04-15 00:10;21;30;;28
2024-04-15 00:20;16;26;;23
2024-04-15 00:30;12;22;;20
2024-04-15 00:40;8;18;;16
2024-04-15 00:50;4;14;;12
2024-04-15 01:00;1;11;;11
2024-04-15 01:10;-2;9;;8
2024-04-15 01:20;-5;6;;6
2024-04-15 01:30;-8;3;;3
2024-04-15 01:40;-10;1;;1
2024-04-15 01:50;-12;-3;;-1
2024-04-15 02:00;-14;-4;;-3
2024-04-15 02:10;-15;-7;;-4
2024-04-15 02:20;-16;-9;;-5
2024-04-15 02:30;-17;-10;;-6
2024-04-15 02:40;-18;-12;;-6
2024-04-15 02:50;-18;-12;;-7
2024-04-15 03:00;-18;-12;;-7
2024-04-15 03:10;-18;-13;;-7
2024-04-15 03:20;-18;-12;;-7
2024-04-15 03:30;-18;-12;;-6
2024-04-15 03:40;-18;-11;;-6
2024-04-15 03:50;-18;-11;;-6
2024-04-15 04:00;-18;-10;;-6
2024-04-15 04:10;-18;-10;;-7
2024-04-15 04:20;-18;-9;;-7
2024-04-15 04:30;-19;-8;;-7
2024-04-15 04:40;-19;-8;;-7
2024-04-15 04:50;-19;-8;;-7
2024-04-15 05:00;-19;-6;;-7
2024-04-15 05:10;-19;-6;;-7
2024-04-15 05:20;-18;-5;;-7
2024-04-15 05:30;-17;-4;;-7
2024-04-15 05:40;-16;-3;;-7
2024-04-15 05:50;-14;-3;;-6
2024-04-15 06:00;-11;-1;;-4
2024-04-15 06:10;-8;2;;-2
2024-04-15 06:20;-4;4;;1
2024-04-15 06:30;0;8;;5
2024-04-15 06:40;6;12;;11
2024-04-15 06:50;12;18;;17
2024-04-15 07:00;18;25;;26
2024-04-15 07:10;25;34;;36
2024-04-15 07:20;33;44;;47
2024-04-15 07:30;40;56;;60
2024-04-15 07:40;48;67;;71
2024-04-15 07:50;56;78;;80
2024-04-15 08:00;63;86;;88
2024-04-15 08:10;70;93;;95
2024-04-15 08:20;76;98;;101
2024-04-15 08:30;81;101;;105
2024-04-15 08:40;86;103;;108
2024-04-15 08:50;89;104;;110
2024-04-15 09:00;91;103;;109
2024-04-15 09:10;92;103;;108
2024-04-15 09:20;93;102;;107
2024-04-15 09:30;93;101;;105
2024-04-15 09:40;92;99;;103
2024-04-15 09:50;91;97;;101
2024-04-15 10:00;89;94;;99
2024-04-15 10:10;87;90;;97
2024-04-15 10:20;85;87;;94
2024-04-15 10:30;83;83;;92
2024-04-15 10:40;80;79;;89
2024-04-15 10:50;77;76;;86
2024-04-15 11:00;73;74;;82
2024-04-15 11:10;69;71;;79
2024-04-15 11:20;66;68;;75
2024-04-15 11:30;62;66;;71
2024-04-15 11:40;58;63;;67
2024-04-15 11:50;54;60;;63
2024-04-15 12:00;50;57;;59
2024-04-15 12:10;46;52;;56
2024-04-15 12:20;42;49;;52
2024-04-15 12:30;38;46;;49
2024-04-15 12:40;35;43;;46
2024-04-15 12:50;31;41;;43
2024-04-15 13:00;28;37;;37
2024-04-15 13:10;24;36;;35
2024-04-15 13:20;21;35;;33
2024-04-15 13:30;18;33;;31
2024-04-15 13:40;15;31;;30
2024-04-15 13:50;12;30;;28
2024-04-15 14:00;9;28;;27
2024-04-15 14:10;6;27;;26
2024-04-15 14:20;4;26;;26
2024-04-15 14:30;1;25;;26
2024-04-15 14:40;-1;26;;26
2024-04-15 14:50;-3;;;27
2024-04-15 15:00;-5;27;;28
2024-04-15 15:10;-7;26;;30
2024-04-15 15:20;-8;25;;32
2024-04-15 15:30;-9;29;;34
2024-04-15 15:40;-10;30;;36
2024-04-15 15:50;-11;28;;38
2024-04-15 16:00;-11;27;;39
2024-04-15 16:10;-11;29;;39
2024-04-15 16:20;-11;31;;38
2024-04-15 16:30;-11;32;;37
2024-04-15 16:40;-11;31;;35
2024-04-15 16:50;-12;29;;34
2024-04-15 17:00;-12;31;;32
2024-04-15 17:10;-12;30;;31
2024-04-15 17:20;-12;27;;31
2024-04-15 17:30;-12;25;;30
2024-04-15 17:40;-12;28;;30
2024-04-15 17:50;-12;32;;31
2024-04-15 18:00;-11;33;;32
2024-04-15 18:10;-11;37;;34
2024-04-15 18:20;-9;42;;37
2024-04-15 18:30;-7;50;;42
2024-04-15 18:40;-5;55;;48
2024-04-15 18:50;-2;61;;55
2024-04-15 19:00;2;68;;75
2024-04-15 19:10;6;75;;81
2024-04-15 19:20;11;80;;86
2024-04-15 19:30;16;87;;92
2024-04-15 19:40;21;95;;99
2024-04-15 19:50;27;102;;107
2024-04-15 20:00;32;105;;115
2024-04-15 20:10;38;115;;122
2024-04-15 20:20;43;120;;129
2024-04-15 20:30;48;121;;134
2024-04-15 20:40;53;125;;139
2024-04-15 20:50;57;129;;143
2024-04-15 21:00;61;131;;146
2024-04-15 21:10;64;134;;148
2024-04-15 21:20;66;137;;149
2024-04-15 21:30;68;139;;150
2024-04-15 21:40;69;139;;151
2024-04-15 21:50;69;139;;151
2024-04-15 22:00;69;139;;151
2024-04-15 22:10;68;139;;150
2024-04-15 22:20;67;136;;150
2024-04-15 22:30;66;135;;148
2024-04-15 22:40;65;132;;146
2024-04-15 22:50;63;130;;143
2024-04-15 23:00;61;127;;139
2024-04-15 23:10;59;123;;134
2024-04-15 23:20;56;120;;129
2024-04-15 23:30;53;119;;123
2024-04-15 23:40;50;116;;119
2024-04-15 23:50;47;113;;114
2024-04-16 00:00;44;110;;110
2024-04-16 00:10;40;107;;106
2024-04-16 00:20;37;104;;102
2024-04-16 00:30;33;99;;98
2024-04-16 00:40;29;94;;93
2024-04-16 00:50;25;89;;88
2024-04-16 01:00;21;86;;89
2024-04-16 01:10;18;82;;84
2024-04-16 01:20;14;79;;81
2024-04-16 01:30;10;78;;78
2024-04-16 01:40;7;74;;75
2024-04-16 01:50;4;71;;73
2024-04-16 02:00;1;69;;71
2024-04-16 02:10;-2;65;;69
2024-04-16 02:20;-5;63;;66
2024-04-16 02:30;-8;60;;63
2024-04-16 02:40;-10;57;;60
2024-04-16 02:50;-12;57;;56
2024-04-16 03:00;-14;58;;54
2024-04-16 03:10;-15;58;;51
2024-04-16 03:20;-17;57;;49
2024-04-16 03:30;-18;57;;48
2024-04-16 03:40;-19;55;;47
2024-04-16 03:50;-19;53;;47
2024-04-16 04:00;-20;49;;46
2024-04-16 04:10;-20;46;;46
2024-04-16 04:20;-21;45;;45
2024-04-16 04:30;-21;45;;44
2024-04-16 04:40;-21;44;;43
2024-04-16 04:50;-21;42;;42
2024-04-16 05:00;-21;42;;41
2024-04-16 05:10;-21;44;;40
2024-04-16 05:20;-21;45;;40
2024-04-16 05:30;-21;46;;40
2024-04-16 05:40;-21;46;;40
2024-04-16 05:50;-21;47;;42
2024-04-16 06:00;-20;48;;44
2024-04-16 06:10;-19;51;;46
2024-04-16 06:20;-17;55;;49
2024-04-16 06:30;-15;58;;52
2024-04-16 06:40;-13;64;;57
2024-04-16 06:50;-10;70;;61
2024-04-16 07:00;-7;76;;67
2024-04-16 07:10;-3;83;;74
2024-04-16 07:20;2;91;;81
2024-04-16 07:30;7;101;;89
2024-04-16 07:40;12;109;;97
2024-04-16 07:50;18;118;;105
2024-04-16 08:00;24;125;;130
2024-04-16 08:10;30;132;;136
2024-04-16 08:20;36;138;;141
2024-04-16 08:30;42;142;;146
2024-04-16 08:40;48;146;;150
2024-04-16 08:50;53;151;;155
2024-04-16 09:00;58;155;;159
2024-04-16 09:10;63;158;;163
2024-04-16 09:20;67;161;;166
2024-04-16 09:30;71;163;;170
2024-04-16 09:40;74;166;;172
2024-04-16 09:50;76;167;;175
2024-04-16 10:00;78;168;;177
2024-04-16 10:10;80;169;;178
2024-04-16 10:20;81;169;;180
2024-04-16 10:30;81;169;;180
2024-04-16 10:40;81;169;;181
2024-04-16 10:50;81;169;;181
2024-04-16 11:00;80;168;;180
2024-04-16 11:10;78;167;;180
2024-04-16 11:20;77;164;;179
2024-04-16 11:30;75;161;;177
2024-04-16 11:40;72;159;;175
2024-04-16 11:50;70;156;;172
2024-04-16 12:00;67;152;;169
2024-04-16 12:10;65;149;;165
2024-04-16 12:20;62;144;;160
2024-04-16 12:30;59;141;;154
2024-04-16 12:40;56;136;;147
2024-04-16 12:50;54;131;;138
2024-04-16 13:00;51;124;;125
2024-04-16 13:10;48;119;;118
2024-04-16 13:20;45;115;;112
2024-04-16 13:30;42;110;;106
2024-04-16 13:40;39;106;;101
2024-04-16 13:50;36;100;;96
2024-04-16 14:00;33;96;;92
2024-04-16 14:10;30;92;;89
2024-04-16 14:20;27;89;;85
2024-04-16 14:30;24;85;;82
2024-04-16 14:40;21;82;;78
2024-04-16 14:50;18;78;;75
2024-04-16 15:00;15;74;;72
2024-04-16 15:10;12;72;;69
2024-04-16 15:20;9;68;;66
2024-04-16 15:30;6;66;;64
2024-04-16 15:40;4;63;;62
2024-04-16 15:50;1;;;60
2024-04-16 16:00;-1;59;;59
2024-04-16 16:10;-3;57;;58
2024-04-16 16:20;-4;56;;57
2024-04-16 16:30;-6;54;;57
2024-04-16 16:40;-7;52;;56
2024-04-16 16:50;-8;50;;55
2024-04-16 17:00;-8;49;;55
2024-04-16 17:10;-8;48;;54
2024-04-16 17:20;-9;47;;53
2024-04-16 17:30;-9;46;;52
2024-04-16 17:40;-9;44;;51
2024-04-16 17:50;-9;43;;50
2024-04-16 18:00;-9;43;;49
2024-04-16 18:10;-9;43;;48
2024-04-16 18:20;-9;42;;48
2024-04-16 18:30;-9;42;;47
2024-04-16 18:40;-9;42;;46
2024-04-16 18:50;-8;43;;45
2024-04-16 19:00;-7;43;;46
2024-04-16 19:10;-5;44;;46
2024-04-16 19:20;-4;44;;46
2024-04-16 19:30;-1;45;;46
2024-04-16 19:40;2;46;;47
2024-04-16 19:50;5;47;;48
2024-04-16 20:00;8;49;;49
2024-04-16 20:10;12;51;;50
2024-04-16 20:20;16;54;;52
2024-04-16 20:30;19;57;;54
2024-04-16 20:40;23;59;;55
2024-04-16 20:50;27;62;;57
2024-04-16 21:00;31;65;;59
2024-04-16 21:10;34;67;;61
2024-04-16 21:20;38;71;;63
2024-04-16 21:30;41;75;;66
2024-04-16 21:40;44;77;;69
2024-04-16 21:50;47;79;;72
2024-04-16 22:00;49;81;;75
2024-04-16 22:10;52;83;;78
2024-04-16 22:20;53;84;;80
2024-04-16 22:30;55;86;;82
2024-04-16 22:40;56;88;;83
2024-04-16 22:50;56;89;;83
2024-04-16 23:00;57;90;;83
2024-04-16 23:10;57;89;;82
2024-04-16 23:20;57;89;;81
2024-04-16 23:30;56;88;;80
2024-04-16 23:40;56;87;;78
2024-04-16 23:50;55;84;;75
2024-04-17 00:00;54;82;;73
2024-04-17 00:10;53;79;;70
2024-04-17 00:20;52;77;;67
2024-04-17 00:30;50;74;;64
2024-04-17 00:40;48;71;;61
2024-04-17 00:50;46;68;;58
2024-04-17 01:00;43;65;;55
2024-04-17 01:10;40;62;;52
2024-04-17 01:20;37;59;;49
2024-04-17 01:30;34;56;;45
2024-04-17 01:40;31;53;;42
2024-04-17 01:50;27;49;;39
2024-04-17 02:00;24;46;;46
2024-04-17 02:10;21;42;;43
2024-04-17 02:20;17;39;;39
2024-04-17 02:30;14;37;;35
2024-04-17 02:40;11;33;;31
2024-04-17 02:50;7;30;;27
2024-04-17 03:00;4;27;;23
2024-04-17 03:10;1;24;;20
2024-04-17 03:20;-2;21;;17
2024-04-17 03:30;-4;17;;14
2024-04-17 03:40;-7;14;;11
2024-04-17 03:50;-9;13;;9
2024-04-17 04:00;-11;9;;7
2024-04-17 04:10;-12;7;;4
2024-04-17 04:20;-14;4;;2
2024-04-17 04:30;-16;3;;1
2024-04-17 04:40;-17;2;;-1
2024-04-17 04:50;-18;0;;-3
2024-04-17 05:00;-19;-1;;-4
2024-04-17 05:10;-20;-2;;-5
2024-04-17 05:20;-21;-3;;-5
2024-04-17 05:30;-22;-3;;-6
2024-04-17 05:40;-22;-5;;-5
2024-04-17 05:50;-23;-3;;-5
2024-04-17 06:00;-23;-2;;-4
2024-04-17 06:10;-23;-2;;-4
2024-04-17 06:20;-23;-1;;-3
2024-04-17 06:30;-22;0;;-3
2024-04-17 06:40;-22;2;;-2
2024-04-17 06:50;-21;3;;-2
2024-04-17 07:00;-19;3;;-2
2024-04-17 07:10;-18;4;;-2
2024-04-17 07:20;-16;5;;-2
2024-04-17 07:30;-14;5;;-2
2024-04-17 07:40;-11;7;;-1
2024-04-17 07:50;-8;8;;0
2024-04-17 08:00;-5;9;;1
2024-04-17 08:10;-1;12;;3
2024-04-17 08:20;3;14;;5
2024-04-17 08:30;7;16;;8
2024-04-17 08:40;11;19;;11
2024-04-17 08:50;15;22;;15
2024-04-17 09:00;20;27;;28
2024-04-17 09:10;24;31;;33
2024-04-17 09:20;28;36;;39
2024-04-17 09:30;32;;;46
2024-04-17 09:40;36;48;;52
2024-04-17 09:50;41;53;;59
2024-04-17 10:00;45;61;;66
2024-04-17 10:10;49;68;;73
2024-04-17 10:20;52;74;;78
2024-04-17 10:30;56;81;;83
2024-04-17 10:40;60;87;;87
2024-04-17 10:50;63;90;;91
2024-04-17 11:00;65;94;;94
2024-04-17 11:10;68;99;;96
2024-04-17 11:20;70;102;;98
2024-04-17 11:30;71;103;;99
2024-04-17 11:40;72;103;;100
2024-04-17 11:50;73;104;;100
2024-04-17 12:00;73;104;;100
2024-04-17 12:10;73;104;;99
2024-04-17 12:20;73;103;;98
2024-04-17 12:30;72;103;;96
2024-04-17 12:40;72;101;;94
2024-04-17 12:50;70;100;;91
2024-04-17 13:00;69;99;;100
2024-04-17 13:10;67;97;;97
2024-04-17 13:20;66;94;;95
2024-04-17 13:30;64;91;;92
2024-04-17 13:40;62;88;;89
2024-04-17 13:50;60;85;;85
2024-04-17 14:00;57;81;;81
2024-04-17 14:10;55;77;;77
2024-04-17 14:20;52;73;;73
2024-04-17 14:30;50;71;;69
2024-04-17 14:40;47;68;;66
2024-04-17 14:50;44;64;;62
2024-04-17 15:00;41;62;;59
2024-04-17 15:10;38;59;;56
2024-04-17 15:20;34;57;;53
2024-04-17 15:30;31;54;;51
2024-04-17 15:40;28;51;;48
2024-04-17 15:50;25;51;;45
2024-04-17 16:00;21;48;;43
2024-04-17 16:10;18;45;;40
2024-04-17 16:20;15;41;;38
2024-04-17 16:30;12;37;;35
2024-04-17 16:40;9;35;;34
2024-04-17 16:50;6;33;;32
2024-04-17 17:00;4;32;;31
2024-04-17 17:10;2;32;;30
2024-04-17 17:20;0;30;;29
2024-04-17 17:30;-2;29;;28
2024-04-17 17:40;-3;27;;28
2024-04-17 17:50;-4;25;;27
2024-04-17 18:00;-5;23;;27
2024-04-17 18:10;-6;22;;27
2024-04-17 18:20;-6;21;;26
2024-04-17 18:30;-6;20;;26
2024-04-17 18:40;-7;19;;25
2024-04-17 18:50;-7;18;;25
2024-04-17 19:00;-7;18;;24
2024-04-17 19:10;-7;17;;24
2024-04-17 19:20;-7;18;;23
2024-04-17 19:30;-7;17;;23
2024-04-17 19:40;-7;16;;22
2024-04-17 19:50;-6;17;;22
2024-04-17 20:00;-5;18;;22
2024-04-17 20:10;-3;17;;22
2024-04-17 20:20;-2;17;;22
2024-04-17 20:30;0;18;;22
2024-04-17 20:40;2;20;;23
2024-04-17 20:50;4;21;;23
2024-04-17 21:00;7;23;;22
2024-04-17 21:10;9;24;;24
2024-04-17 21:20;11;25;;25
2024-04-17 21:30;14;27;;28
2024-04-17 21:40;16;29;;31
2024-04-17 21:50;18;31;;34
2024-04-17 22:00;21;33;;38
2024-04-17 22:10;24;36;;42
2024-04-17 22:20;26;40;;45
2024-04-17 22:30;29;44;;49
2024-04-17 22:40;32;48;;53
2024-04-17 22:50;34;51;;57
2024-04-17 23:00;37;55;;61
2024-04-17 23:10;39;60;;65
2024-04-17 23:20;41;65;;68
2024-04-17 23:30;43;67;;72
2024-04-17 23:40;45;72;;74
2024-04-17 23:50;47;75;;76
2024-04-18 00:00;49;78;;78
2024-04-18 00:10;50;79;;79
2024-04-18 00:20;52;80;;79
2024-04-18 00:30;53;79;;79
2024-04-18 00:40;55;79;;79
2024-04-18 00:50;55;78;;78
2024-04-18 01:00;56;76;;78
2024-04-18 01:10;56;75;;76
2024-04-18 01:20;56;73;;75
2024-04-18 01:30;55;72;;72
2024-04-18 01:40;53;70;;70
2024-04-18 01:50;51;67;;67
2024-04-18 02:00;49;66;;64
2024-04-18 02:10;46;62;;61
2024-04-18 02:20;44;58;;57
2024-04-18 02:30;41;56;;54
2024-04-18 02:40;37;53;;50
2024-04-18 02:50;34;50;;47
2024-04-18 03:00;31;47;;43
2024-04-18 03:10;27;45;;40
2024-04-18 03:20;24;42;;37
2024-04-18 03:30;20;40;;35
2024-04-18 03:40;17;37;;32
2024-04-18 03:50;13;34;;29
2024-04-18 04:00;10;31;;26
2024-04-18 04:10;7;29;;23
2024-04-18 04:20;4;26;;21
2024-04-18 04:30;1;24;;18
2024-04-18 04:40;-1;21;;15
2024-04-18 04:50;-4;19;;13
2024-04-18 05:00;-6;16;;10
2024-04-18 05:10;-8;14;;8
2024-04-18 05:20;-10;11;;5
2024-04-18 05:30;-12;9;;3
2024-04-18 05:40;-14;7;;1
2024-04-18 05:50;-16;5;;-1
2024-04-18 06:00;-18;4;;-2
2024-04-18 06:10;-20;2;;-4
2024-04-18 06:20;-21;1;;-5
2024-04-18 06:30;-22;-1;;-6
2024-04-18 06:40;-23;-2;;-7
2024-04-18 06:50;-23;-3;;-7
2024-04-18 07:00;-23;-2;;-8
2024-04-18 07:10;-23;-3;;-8
2024-04-18 07:20;-23;-3;;-8
2024-04-18 07:30;-22;-4;;-7
2024-04-18 07:40;-22;-4;;-7
2024-04-18 07:50;-21;-3;;-7
2024-04-18 08:00;-19;-3;;-7
2024-04-18 08:10;-18;-3;;-6
2024-04-18 08:20;-16;-3;;-6
2024-04-18 08:30;-14;-3;;-5
2024-04-18 08:40;-12;-2;;-5
2024-04-18 08:50;-10;-3;;-4
2024-04-18 09:00;-7;-1;;-2
2024-04-18 09:10;-5;-1;;0
2024-04-18 09:20;-2;1;;2
2024-04-18 09:30;0;3;;6
2024-04-18 09:40;3;5;;9
2024-04-18 09:50;5;8;;13
2024-04-18 10:00;8;11;;6
2024-04-18 10:10;11;14;;9
2024-04-18 10:20;14;18;;13
2024-04-18 10:30;18;23;;17
2024-04-18 10:40;22;27;;23
2024-04-18 10:50;26;33;;29
2024-04-18 11:00;30;38;;35
2024-04-18 11:10;34;44;;42
2024-04-18 11:20;39;51;;50
2024-04-18 11:30;44;58;;57
2024-04-18 11:40;48;;;65
2024-04-18 11:50;52;72;;71
2024-04-18 12:00;57;77;;76
2024-04-18 12:10;60;82;;81
2024-04-18 12:20;64;86;;85
2024-04-18 12:30;67;90;;88
2024-04-18 12:40;70;92;;89
2024-04-18 12:50;73;92;;91
2024-04-18 13:00;75;93;;91
2024-04-18 13:10;76;93;;91
2024-04-18 13:20;77;93;;90
2024-04-18 13:30;77;93;;90
2024-04-18 13:40;77;92;;88
2024-04-18 13:50;77;92;;87
2024-04-18 14:00;76;91;;86
2024-04-18 14:10;75;90;;84
2024-04-18 14:20;74;88;;82
2024-04-18 14:30;72;86;;80
2024-04-18 14:40;70;84;;78
2024-04-18 14:50;68;81;;76
2024-04-18 15:00;65;77;;73
2024-04-18 15:10;63;75;;70
2024-04-18 15:20;60;73;;67
2024-04-18 15:30;57;70;;63
2024-04-18 15:40;54;66;;60
2024-04-18 15:50;51;64;;56
2024-04-18 16:00;48;;;53
2024-04-18 16:10;44;58;;49
2024-04-18 16:20;41;;;46
2024-04-18 16:30;37;51;;42
2024-04-18 16:40;34;48;;39
2024-04-18 16:50;30;45;;36
2024-04-18 17:00;26;41;;33
2024-04-18 17:10;23;38;;30
2024-04-18 17:20;19;35;;27
2024-04-18 17:30;16;32;;24
2024-04-18 17:40;13;29;;21
2024-04-18 17:50;10;26;;19
2024-04-18 18:00;7;23;;16
2024-04-18 18:10;4;20;;14
2024-04-18 18:20;2;18;;12
2024-04-18 18:30;0;15;;10
2024-04-18 18:40;-1;13;;9
2024-04-18 18:50;-2;10;;7
2024-04-18 19:00;-3;9;;6
2024-04-18 19:10;-4;7;;6
2024-04-18 19:20;-5;6;;5
2024-04-18 19:30;-5;4;;4
2024-04-18 19:40;-6;3;;4
2024-04-18 19:50;-6;3;;4
2024-04-18 20:00;-6;2;;3
2024-04-18 20:10;-7;1;;3
2024-04-18 20:20;-7;0;;3
2024-04-18 20:30;-7;0;;2
2024-04-18 20:40;-7;-1;;2
2024-04-18 20:50;-6;-1;;1
2024-04-18 21:00;-6;-1;;1
2024-04-18 21:10;-5;-2;;1
2024-04-18 21:20;-5;-1;;0
2024-04-18 21:30;-4;-1;;0
2024-04-18 21:40;-3;-1;;0
2024-04-18 21:50;-2;-1;;0
2024-04-18 22:00;-1;0;;0
2024-04-18 22:10;0;1;;1
2024-04-18 22:20;2;2;;1
2024-04-18 22:30;4;2;;2
2024-04-18 22:40;6;4;;3
2024-04-18 22:50;8;6;;4
2024-04-18 23:00;10;8;;6
2024-04-18 23:10;13;10;;8
2024-04-18 23:20;15;13;;11
2024-04-18 23:30;18;16;;14
2024-04-18 23:40;21;21;;19
2024-04-18 23:50;24;26;;24
2024-04-19 00:00;27;32;;30
2024-04-19 00:10;31;40;;37
2024-04-19 00:20;34;46;;45
2024-04-19 00:30;38;55;;52
2024-04-19 00:40;42;63;;59
2024-04-19 00:50;45;71;;65
2024-04-19 01:00;49;77;;80
2024-04-19 01:10;53;81;;85
2024-04-19 01:20;56;84;;88
2024-04-19 01:30;59;87;;90
2024-04-19 01:40;61;89;;92
2024-04-19 01:50;63;89;;92
2024-04-19 02:00;64;86;;91
2024-04-19 02:10;65;85;;90
2024-04-19 02:20;64;83;;89
2024-04-19 02:30;63;80;;88
2024-04-19 02:40;62;78;;86
2024-04-19 02:50;60;76;;85
2024-04-19 03:00;57;73;;83
2024-04-19 03:10;55;71;;80
2024-04-19 03:20;52;70;;78
2024-04-19 03:30;48;68;;75
2024-04-19 03:40;45;65;;72
2024-04-19 03:50;41;63;;68
2024-04-19 04:00;37;61;;65
2024-04-19 04:10;34;57;;61
2024-04-19 04:20;30;55;;57
2024-04-19 04:30;26;52;;53
2024-04-19 04:40;22;49;;49
2024-04-19 04:50;18;47;;45
2024-04-19 05:00;15;43;;42
2024-04-19 05:10;11;41;;39
2024-04-19 05:20;8;39;;36
2024-04-19 05:30;5;38;;34
2024-04-19 05:40;3;37;;32
2024-04-19 05:50;0;36;;30
2024-04-19 06:00;-3;35;;28
2024-04-19 06:10;-6;33;;25
2024-04-19 06:20;-9;32;;23
2024-04-19 06:30;-11;30;;22
2024-04-19 06:40;-14;28;;20
2024-04-19 06:50;-16;28;;19
2024-04-19 07:00;-18;27;;18
2024-04-19 07:10;-20;25;;18
2024-04-19 07:20;-21;25;;17
2024-04-19 07:30;-22;24;;17
2024-04-19 07:40;-23;25;;18
2024-04-19 07:50;-23;24;;18
2024-04-19 08:00;-23;24;;28
2024-04-19 08:10;-23;24;;28
2024-04-19 08:20;-23;23;;28
2024-04-19 08:30;-22;23;;28
2024-04-19 08:40;-21;22;;28
2024-04-19 08:50;-21;23;;29
2024-04-19 09:00;-20;22;;30
2024-04-19 09:10;-19;20;;31
2024-04-19 09:20;-18;20;;31
2024-04-19 09:30;-16;20;;32
2024-04-19 09:40;-15;20;;33
2024-04-19 09:50;-14;21;;33
2024-04-19 10:00;-13;21;;34
2024-04-19 10:10;-12;23;;35
2024-04-19 10:20;-11;23;;36
2024-04-19 10:30;-9;25;;37
2024-04-19 10:40;-8;27;;40
2024-04-19 10:50;-6;31;;44
2024-04-19 11:00;-4;34;;48
2024-04-19 11:10;-1;41;;53
2024-04-19 11:20;2;47;;59
2024-04-19 11:30;6;53;;65
2024-04-19 11:40;11;59;;72
2024-04-19 11:50;15;65;;79
2024-04-19 12:00;21;71;;85
2024-04-19 12:10;26;78;;92
2024-04-19 12:20;32;85;;98
2024-04-19 12:30;38;93;;104
2024-04-19 12:40;44;101;;111
2024-04-19 12:50;51;108;;117
2024-04-19 13:00;57;113;;114
2024-04-19 13:10;62;;;120
2024-04-19 13:20;68;124;;126
2024-04-19 13:30;72;128;;131
2024-04-19 13:40;76;131;;136
2024-04-19 13:50;80;135;;139
2024-04-19 14:00;83;138;;142
2024-04-19 14:10;85;141;;145
2024-04-19 14:20;86;144;;147
2024-04-19 14:30;86;144;;148
2024-04-19 14:40;86;145;;149
2024-04-19 14:50;85;145;;150
2024-04-19 15:00;84;144;;151
2024-04-19 15:10;83;142;;150
2024-04-19 15:20;81;141;;150
2024-04-19 15:30;79;139;;149
2024-04-19 15:40;76;139;;147
2024-04-19 15:50;74;139;;145
2024-04-19 16:00;71;138;;142
2024-04-19 16:10;68;135;;139
2024-04-19 16:20;65;133;;135
2024-04-19 16:30;62;133;;131
2024-04-19 16:40;58;131;;127
2024-04-19 16:50;54;126;;124
2024-04-19 17:00;51;123;;121
2024-04-19 17:10;47;121;;117
2024-04-19 17:20;43;118;;114
2024-04-19 17:30;39;114;;110
2024-04-19 17:40;35;109;;107
2024-04-19 17:50;31;106;;103
2024-04-19 18:00;27;105;;99
2024-04-19 18:10;23;101;;96
2024-04-19 18:20;19;;;92
2024-04-19 18:30;16;;;89
2024-04-19 18:40;12;;;87
2024-04-19 18:50;9;;;85
2024-04-19 19:00;6;;;83
2024-04-19 19:10;4;;;82
2024-04-19 19:20;2;;;81
2024-04-19 19:30;0;;;80
2024-04-19 19:40;-1;;;79
2024-04-19 19:50;-2;;;78
2024-04-19 20:00;-3;;;78
2024-04-19 20:10;-4;;;77
2024-04-19 20:20;-5;;;76
2024-04-19 20:30;-5;;;75
2024-04-19 20:40;-6;;;75
2024-04-19 20:50;-6;;;75
2024-04-19 21:00;-7;;;75
2024-04-19 21:10;-7;;;75
2024-04-19 21:20;-8;;;76
2024-04-19 21:30;-8;;;77
2024-04-19 21:40;-9;;;77
2024-04-19 21:50;-9;;;78